Le nostre stazioni meteo in Italia

Pubblicità
Il mio iltempo24.it
Chillingham Barns, Gran Bretagna (99196): Temperatura & dewpoint: 15.09.2018 04:00:00 - 21.09.2018 04:00:00 (BST)Chillingham Barns, Gran Bretagna (99196): precipitazioni: 15.09.2018 04:00:00 - 21.09.2018 04:00:00 (BST)
Data & Tempo tt [°C] td [°C] rr [mm]
21.09.2018 04:00:00 - - -
21.09.2018 03:00:00 6,6 5,6 7,0
21.09.2018 02:00:00 7,6 6,8 1,2
21.09.2018 01:00:00 7,7 7,1 5,4
21.09.2018 00:00:00 7,6 7,0 4,0
20.09.2018 23:00:00 7,5 7,1 3,6
20.09.2018 22:00:00 7,5 6,6 1,0
20.09.2018 21:00:00 8,2 6,3 0,4
20.09.2018 20:00:00 8,4 5,5 0,0
20.09.2018 19:00:00 8,6 6,3 0,6
20.09.2018 18:00:00 10,1 6,1 0,2
20.09.2018 17:00:00 11,5 5,6 0,0
20.09.2018 16:00:00 11,9 5,6 0,0
20.09.2018 15:00:00 12,4 5,5 0,0
20.09.2018 14:00:00 13,0 5,0 0,0
20.09.2018 13:00:00 13,6 5,1 0,0
20.09.2018 12:00:00 12,7 5,6 0,0
20.09.2018 11:00:00 11,6 5,1 0,0
20.09.2018 10:00:00 11,7 5,5 0,0
20.09.2018 09:00:00 10,4 5,1 0,0
20.09.2018 08:00:00 9,9 5,0 0,0
20.09.2018 07:00:00 9,1 4,7 0,0
20.09.2018 06:00:00 9,4 4,9 0,0
20.09.2018 05:00:00 9,7 5,0 0,0
20.09.2018 04:00:00 9,7 4,9 0,0
20.09.2018 03:00:00 9,9 4,4 0,0
20.09.2018 02:00:00 10,2 5,3 0,0
20.09.2018 01:00:00 10,3 4,5 0,0
20.09.2018 00:00:00 10,5 5,0 0,0
19.09.2018 23:00:00 10,9 3,6 0,0
19.09.2018 22:00:00 10,9 4,0 0,0
19.09.2018 21:00:00 11,1 4,2 0,0
19.09.2018 20:00:00 10,8 3,9 0,0
19.09.2018 19:00:00 11,6 3,6 0,0
19.09.2018 18:00:00 12,8 6,6 0,0
19.09.2018 17:00:00 13,0 6,9 0,0
19.09.2018 16:00:00 14,2 6,6 0,0
19.09.2018 15:00:00 15,0 6,5 0,0
19.09.2018 14:00:00 16,5 5,5 0,0
19.09.2018 13:00:00 16,2 12,7 0,0
19.09.2018 12:00:00 18,0 10,3 0,0
19.09.2018 11:00:00 17,3 10,0 0,0
19.09.2018 10:00:00 15,4 10,5 0,0
19.09.2018 09:00:00 13,4 10,1 0,0
19.09.2018 08:00:00 12,3 8,9 0,0
19.09.2018 07:00:00 11,7 8,1 0,0
19.09.2018 06:00:00 12,6 8,8 0,0
19.09.2018 05:00:00 13,4 8,6 0,0
19.09.2018 04:00:00 13,9 8,8 0,0
19.09.2018 03:00:00 14,4 9,3 0,0
19.09.2018 02:00:00 14,7 10,4 0,0
19.09.2018 01:00:00 15,1 11,1 0,0
19.09.2018 00:00:00 15,7 12,1 0,0
18.09.2018 23:00:00 15,3 11,6 0,0
18.09.2018 22:00:00 15,9 12,7 0,0
18.09.2018 21:00:00 16,6 12,5 0,0
18.09.2018 20:00:00 16,0 12,5 0,0
18.09.2018 19:00:00 16,3 12,3 0,0
18.09.2018 18:00:00 16,2 12,2 0,0
18.09.2018 17:00:00 15,8 11,5 0,2
18.09.2018 16:00:00 16,5 10,3 0,0
18.09.2018 15:00:00 17,9 12,3 0,0
18.09.2018 14:00:00 18,5 13,9 0,0
18.09.2018 13:00:00 19,7 15,2 0,0
18.09.2018 12:00:00 18,7 15,9 0,0
18.09.2018 11:00:00 15,3 13,5 0,0
18.09.2018 10:00:00 14,2 12,7 0,2
18.09.2018 09:00:00 13,2 11,7 0,0
18.09.2018 08:00:00 13,0 11,1 0,0
18.09.2018 07:00:00 14,0 10,3 0,0
18.09.2018 06:00:00 14,1 11,1 0,0
18.09.2018 05:00:00 13,9 11,1 0,0
18.09.2018 04:00:00 13,6 11,3 0,0
18.09.2018 03:00:00 15,5 12,0 0,0
18.09.2018 02:00:00 15,0 12,2 0,0
18.09.2018 01:00:00 16,9 13,6 0,0
18.09.2018 00:00:00 17,4 14,0 0,0
17.09.2018 23:00:00 18,0 13,9 0,0
17.09.2018 22:00:00 17,7 13,7 0,0
17.09.2018 21:00:00 18,0 14,1 0,0
17.09.2018 20:00:00 18,5 14,4 0,0
17.09.2018 19:00:00 18,8 14,9 0,0
17.09.2018 18:00:00 18,4 15,0 0,0
17.09.2018 17:00:00 17,7 14,3 0,0
17.09.2018 16:00:00 16,9 13,1 0,0
17.09.2018 15:00:00 16,3 12,2 0,0
17.09.2018 14:00:00 14,9 11,2 0,0
17.09.2018 13:00:00 15,1 11,0 0,0
17.09.2018 12:00:00 14,8 11,5 0,0
17.09.2018 11:00:00 14,5 10,8 0,0
17.09.2018 10:00:00 13,7 10,7 0,0
17.09.2018 09:00:00 13,0 10,6 0,0
17.09.2018 08:00:00 12,3 9,8 0,0
17.09.2018 07:00:00 12,3 9,6 0,0
17.09.2018 06:00:00 12,5 9,9 0,0
17.09.2018 05:00:00 12,7 9,8 0,0
17.09.2018 04:00:00 13,1 10,0 0,0
17.09.2018 03:00:00 12,5 9,4 0,0
17.09.2018 02:00:00 13,7 10,1 0,0
17.09.2018 01:00:00 12,8 10,0 0,0
17.09.2018 00:00:00 12,7 10,2 0,0
16.09.2018 23:00:00 12,9 10,0 0,0
16.09.2018 22:00:00 13,5 8,7 0,0
16.09.2018 21:00:00 13,5 8,5 0,0
16.09.2018 20:00:00 13,0 7,8 0,0
16.09.2018 19:00:00 14,0 6,3 0,0
16.09.2018 18:00:00 15,8 6,8 0,0
16.09.2018 17:00:00 16,5 9,1 0,0
16.09.2018 16:00:00 16,6 9,7 0,0
16.09.2018 15:00:00 17,1 9,6 0,0
16.09.2018 14:00:00 17,4 9,7 0,0
16.09.2018 13:00:00 16,8 10,7 0,0
16.09.2018 12:00:00 17,0 11,2 0,0
16.09.2018 11:00:00 17,9 13,0 0,2
16.09.2018 10:00:00 16,9 13,4 0,0
16.09.2018 09:00:00 14,9 13,8 0,0
16.09.2018 08:00:00 13,7 12,8 0,2
16.09.2018 07:00:00 13,3 12,1 0,0
16.09.2018 06:00:00 13,6 11,3 0,0
16.09.2018 05:00:00 13,9 10,5 0,0
16.09.2018 04:00:00 13,3 9,9 0,0
16.09.2018 03:00:00 12,9 9,9 0,0
16.09.2018 02:00:00 12,6 9,9 0,0
16.09.2018 01:00:00 12,8 9,7 0,0
16.09.2018 00:00:00 12,1 9,6 0,0
15.09.2018 23:00:00 12,2 9,9 0,2
15.09.2018 22:00:00 12,8 10,2 0,0
15.09.2018 21:00:00 13,1 10,2 0,0
15.09.2018 20:00:00 13,4 10,1 0,0
15.09.2018 19:00:00 13,5 9,6 0,0
15.09.2018 18:00:00 14,1 8,9 0,0
15.09.2018 17:00:00 14,5 8,6 0,0
15.09.2018 16:00:00 15,0 8,7 0,0
15.09.2018 15:00:00 15,0 8,4 0,0
15.09.2018 14:00:00 14,4 7,3 0,0
15.09.2018 13:00:00 13,3 7,9 0,0
15.09.2018 12:00:00 14,2 8,0 0,0
15.09.2018 11:00:00 13,0 7,7 0,0
15.09.2018 10:00:00 11,2 6,3 0,0
15.09.2018 09:00:00 10,3 6,3 0,0
15.09.2018 08:00:00 9,4 5,9 0,0
15.09.2018 07:00:00 8,1 5,4 0,0
15.09.2018 06:00:00 7,5 5,4 0,0
15.09.2018 05:00:00 7,4 5,8 0,0
15.09.2018 04:00:00 6,5 5,5 0,0

tt = Temperatura
td = dewpoint
rr = precipitazioni

Stazioni seguenti

WeatherPro
AMSI
MeteoEarth